THORAD AGENA D DEB, 42511

Orbit data source: Space-Track

THORAD AGENA D DEB, 42511 is space debris in SSO originally from a launch on Wed, 08 Apr 1970 UTC launched from the Air Force Western Test Range (AFWTR). Debris objects in space refer to the collection of defunct objects orbiting the Earth. Examples of debris include non-operational satellites, rocket bodies, and fragments generated from explosions, collisions, or faulty payload assembly.

Loading next visibility...
Identifier
42511, 1970-025RR
Orbit
SSO
Country
Flag of USUS
Related business
Manufacturer
Unknown
Mission
Spacecraft
Bus & Motor
Unknown
Mass
Unknown
Launch date (UTC)
1970-04-08 (56 years ago)
Launch vehicle
Unknown
Launch site
Air Force Western Test Range (AFWTR)
Object type
Payload
Rocket body
Debris
Shape & HBR
Unknown shape, 0.1 m
Radar Cross Section
Small (<0.1 m²)

Expand to show TLE details & history
Last TLE update: 2 days ago

TLE from 2 days ago
0 THORAD AGENA D DEB
1 42511U 70025RR  25286.48198685  .00000316  00000-0  11322-2 0  9990
2 42511 100.1767 204.2509 0454455 172.7243 188.0743 12.72487973551598
Epoch: 2025-10-13T11:34Z
TLE epoch observation values (Epoch: 2025-10-13T11:34:03.663Z)
Latitude
-0.00002°
Longitude
8.4515°
Altitude
1,723.555 km
Speed
6.856 km/s
True Right ascension
13h 37m 00s
True Declination
0° 00' 00"
Sunlit
Object was in daylight at epoch
Visualization orbit readout
Latitude
Unknown
Longitude
Unknown
Altitude
Unknown
Speed
Unknown
Apparent Right ascension
Unknown
Apparent Declination
Unknown
Sunlit
N/A
Visualization observer readout
Local Sidereal Time
02:54:08
Azimuth
Unknown
Elevation
Unknown
Doppler factor
Unknown
Orbital elements
Apogee altitude
1,721.327 km
Perigee altitude
1,017.16 km
Semi-major axis
7,747.381 km
Eccentricity
0.04545
Inclination
100.1767°
RAAN
204.2509°
Arg. of periapsis
172.7243°
True anomaly
187.38189°
Mean anomaly
188.0743°
Eccentric anomaly
187.72433°
Mean motion
3.18281 °/min
Orbital period
113.11 mins
BSTAR
0.0011322

Documentation

Showing up to 5 results
|